Radiation Dose at Monitoring Post of Fukushima Daini Nuclear Power Station
Date,Time,MP-1(microSv/h),MP-2(microSv/h),MP-3(microSv/h),MP-4(microSv/h),MP-5(microSv/h),MP-6(microSv/h),MP-7(microSv/h),Wind Direction,Wind Velocity(m/s),Rain
2016/12/13,00:00,0.389,0.235,0.408,0.377,0.343,0.195,0.168,south-southwest,2.8,No
2016/12/13,00:10,0.391,0.235,0.409,0.376,0.345,0.195,0.168,south-southwest,2.6,No
2016/12/13,00:20,0.390,0.235,0.405,0.377,0.345,0.196,0.167,south-southwest,3.6,No
2016/12/13,00:30,0.388,0.234,0.407,0.377,0.344,0.195,0.168,south-southwest,2.8,No
2016/12/13,00:40,0.388,0.235,0.404,0.376,0.345,0.195,0.169,south,1.4,No
2016/12/13,00:50,0.389,0.234,0.406,0.376,0.347,0.195,0.168,-,CALM,No
2016/12/13,01:00,0.389,0.235,0.406,0.377,0.343,0.195,0.167,south-southwest,1.4,No
2016/12/13,01:10,0.389,0.234,0.408,0.377,0.344,0.195,0.169,south-southwest,2.2,No
2016/12/13,01:20,0.390,0.235,0.407,0.376,0.345,0.196,0.168,south-southwest,2.0,No
2016/12/13,01:30,0.390,0.234,0.406,0.376,0.345,0.195,0.168,southwest,2.0,No
2016/12/13,01:40,0.389,0.234,0.406,0.376,0.344,0.194,0.167,south-southwest,3.1,No
2016/12/13,01:50,0.389,0.234,0.406,0.377,0.344,0.194,0.167,southwest,3.4,No
2016/12/13,02:00,0.391,0.235,0.407,0.376,0.344,0.196,0.168,south-southwest,4.4,No
2016/12/13,02:10,0.390,0.234,0.407,0.376,0.345,0.196,0.167,south-southwest,4.2,No
2016/12/13,02:20,0.390,0.235,0.406,0.377,0.346,0.195,0.168,southwest,5.6,No
2016/12/13,02:30,0.390,0.235,0.407,0.376,0.344,0.195,0.168,southwest,5.7,No
2016/12/13,02:40,0.389,0.235,0.407,0.376,0.344,0.194,0.168,southwest,5.7,No
2016/12/13,02:50,0.389,0.235,0.407,0.377,0.346,0.195,0.167,southwest,6.2,No
2016/12/13,03:00,0.389,0.235,0.407,0.377,0.346,0.194,0.168,southwest,7.2,No
2016/12/13,03:10,0.391,0.234,0.406,0.376,0.344,0.195,0.168,southwest,6.7,No
2016/12/13,03:20,0.390,0.235,0.405,0.377,0.344,0.195,0.168,southwest,6.1,No
2016/12/13,03:30,0.389,0.235,0.407,0.377,0.346,0.193,0.167,southwest,5.4,No
2016/12/13,03:40,0.389,0.234,0.407,0.377,0.345,0.195,0.168,southwest,5.6,No
2016/12/13,03:50,0.390,0.234,0.406,0.378,0.345,0.194,0.168,southwest,5.1,No
2016/12/13,04:00,0.390,0.234,0.408,0.378,0.346,0.195,0.166,west-southwest,3.1,No
2016/12/13,04:10,0.388,0.235,0.406,0.378,0.345,0.195,0.168,west-southwest,3.9,No
2016/12/13,04:20,0.390,0.234,0.406,0.375,0.343,0.195,0.167,southwest,6.2,No
2016/12/13,04:30,0.389,0.234,0.408,0.377,0.344,0.196,0.168,southwest,7.7,No
2016/12/13,04:40,0.390,0.235,0.406,0.378,0.345,0.196,0.168,southwest,8.5,No
2016/12/13,04:50,0.390,0.233,0.405,0.376,0.345,0.194,0.168,southwest,7.3,No
2016/12/13,05:00,0.389,0.235,0.405,0.377,0.344,0.194,0.167,southwest,8.0,No
2016/12/13,05:10,0.389,0.235,0.407,0.378,0.345,0.196,0.167,southwest,8.8,No
2016/12/13,05:20,0.387,0.234,0.405,0.376,0.344,0.194,0.167,southwest,8.7,No
2016/12/13,05:30,0.390,0.235,0.406,0.376,0.346,0.195,0.168,west-southwest,7.3,No
2016/12/13,05:40,0.389,0.235,0.407,0.377,0.346,0.195,0.168,southwest,7.8,No
2016/12/13,05:50,0.388,0.234,0.407,0.375,0.345,0.195,0.167,southwest,9.5,No
2016/12/13,06:00,0.391,0.234,0.405,0.375,0.345,0.194,0.168,southwest,9.1,No
2016/12/13,06:10,0.387,0.234,0.407,0.378,0.345,0.195,0.167,southwest,10.4,No
2016/12/13,06:20,0.389,0.235,0.407,0.375,0.343,0.193,0.166,southwest,12.2,No
2016/12/13,06:30,0.389,0.234,0.406,0.377,0.344,0.194,0.167,southwest,11.8,No
2016/12/13,06:40,0.389,0.235,0.407,0.376,0.345,0.194,0.166,southwest,11.9,No
2016/12/13,06:50,0.387,0.235,0.405,0.376,0.345,0.195,0.167,southwest,12.1,No
2016/12/13,07:00,0.389,0.235,0.405,0.376,0.346,0.195,0.167,southwest,10.4,No
2016/12/13,07:10,0.389,0.235,0.407,0.378,0.346,0.194,0.167,southwest,10.0,No
2016/12/13,07:20,0.386,0.235,0.406,0.374,0.344,0.194,0.167,southwest,9.3,No
2016/12/13,07:30,0.389,0.234,0.405,0.376,0.347,0.196,0.167,southwest,8.4,No
2016/12/13,07:40,0.391,0.234,0.405,0.377,0.345,0.195,0.167,southwest,10.1,No
2016/12/13,07:50,0.387,0.234,0.405,0.375,0.343,0.193,0.165,southwest,9.0,No
2016/12/13,08:00,0.389,0.235,0.406,0.378,0.347,0.194,0.167,southwest,7.9,No
2016/12/13,08:10,0.388,0.235,0.406,0.376,0.344,0.193,0.168,southwest,9.7,No
2016/12/13,08:20,0.387,0.235,0.402,0.377,0.346,0.195,0.168,southwest,9.1,No
2016/12/13,08:30,0.392,0.234,0.407,0.377,0.345,0.195,0.168,southwest,8.2,No
2016/12/13,08:40,0.388,0.235,0.406,0.375,0.344,0.194,0.167,southwest,5.9,No
2016/12/13,08:50,0.387,0.235,0.407,0.379,0.345,0.195,0.168,southwest,6.4,No
2016/12/13,09:00,0.389,0.235,0.407,0.377,0.344,0.196,0.167,southwest,7.3,No
2016/12/13,09:10,0.387,0.235,0.406,0.377,0.345,0.194,0.168,southwest,5.7,No
2016/12/13,09:20,0.388,0.234,0.407,0.376,0.343,0.195,0.166,southwest,5.7,No
2016/12/13,09:30,0.386,0.234,0.407,0.374,0.344,0.195,0.168,southwest,3.3,No
2016/12/13,09:40,0.389,0.234,0.406,0.378,0.345,0.195,0.167,south-southwest,2.1,No
2016/12/13,09:50,0.387,0.234,0.405,0.375,0.343,0.195,0.168,south,4.8,No
2016/12/13,10:00,0.387,0.234,0.406,0.379,0.343,0.195,0.167,southwest,4.2,No
2016/12/13,10:10,0.388,0.234,0.405,0.376,0.345,0.193,0.167,south-southwest,3.5,No
2016/12/13,10:20,0.386,0.235,0.405,0.379,0.342,0.195,0.167,south-southwest,3.9,No
2016/12/13,10:30,0.388,0.234,0.407,0.376,0.345,0.195,0.167,southwest,2.7,No
2016/12/13,10:40,0.387,0.235,0.405,0.376,0.343,0.195,0.168,west-southwest,2.7,No
2016/12/13,10:50,0.386,0.235,0.406,0.376,0.344,0.195,0.168,west-northwest,1.7,No
2016/12/13,11:00,0.387,0.234,0.405,0.375,0.343,0.194,0.167,north,1.9,No
2016/12/13,11:10,0.387,0.235,0.405,0.377,0.344,0.194,0.167,north,1.1,No
2016/12/13,11:20,0.390,0.235,0.403,0.376,0.345,0.195,0.167,-,CALM,No
2016/12/13,11:30,0.384,0.236,0.406,0.375,0.345,0.194,0.167,-,CALM,No
2016/12/13,11:40,0.387,0.234,0.403,0.374,0.344,0.195,0.167,east-northeast,0.6,No
2016/12/13,11:50,0.386,0.235,0.405,0.378,0.344,0.195,0.168,southeast,1.1,No
2016/12/13,12:00,0.387,0.235,0.405,0.375,0.346,0.195,0.167,south-southeast,1.1,No
2016/12/13,12:10,0.387,0.235,0.405,0.376,0.344,0.193,0.167,south-southeast,1.0,No
2016/12/13,12:20,0.388,0.234,0.405,0.374,0.346,0.195,0.167,south-southeast,1.8,No
2016/12/13,12:30,0.385,0.236,0.404,0.377,0.346,0.194,0.168,south,1.4,No
2016/12/13,12:40,0.389,0.235,0.406,0.375,0.345,0.194,0.167,south-southeast,1.0,No
2016/12/13,12:50,0.387,0.235,0.407,0.377,0.344,0.194,0.168,south,1.7,No
2016/12/13,13:00,0.388,0.234,0.406,0.377,0.343,0.196,0.167,south,2.2,No
2016/12/13,13:10,0.387,0.235,0.405,0.378,0.344,0.195,0.168,south,3.2,No
2016/12/13,13:20,0.387,0.233,0.406,0.376,0.344,0.196,0.169,south,2.3,No
2016/12/13,13:30,0.387,0.235,0.405,0.377,0.343,0.195,0.168,south,2.0,No
2016/12/13,13:40,0.387,0.234,0.405,0.375,0.345,0.195,0.167,south,3.7,No
2016/12/13,13:50,0.385,0.236,0.405,0.378,0.343,0.193,0.167,south,2.9,No
2016/12/13,14:00,0.386,0.235,0.406,0.377,0.346,0.195,0.166,south,2.9,No
2016/12/13,14:10,0.387,0.235,0.402,0.378,0.343,0.195,0.168,south,2.4,No
2016/12/13,14:20,0.387,0.236,0.408,0.377,0.345,0.195,0.169,south,3.1,No
2016/12/13,14:30,0.387,0.236,0.404,0.379,0.344,0.194,0.167,south-southwest,1.2,No
2016/12/13,14:40,0.387,0.237,0.406,0.376,0.346,0.195,0.169,south,1.7,No
2016/12/13,14:50,0.389,0.236,0.404,0.379,0.344,0.194,0.168,south,2.8,No
2016/12/13,15:00,0.387,0.236,0.409,0.377,0.344,0.195,0.168,south-southwest,4.4,No
2016/12/13,15:10,0.388,0.235,0.406,0.379,0.346,0.195,0.167,south-southwest,4.9,No
2016/12/13,15:20,0.387,0.235,0.407,0.379,0.344,0.195,0.167,south-southwest,3.3,No
2016/12/13,15:30,0.388,0.234,0.405,0.377,0.345,0.194,0.168,south-southwest,4.4,No
2016/12/13,15:40,0.388,0.235,0.407,0.377,0.343,0.194,0.167,southwest,3.2,No
2016/12/13,15:50,0.387,0.235,0.405,0.376,0.347,0.195,0.167,southwest,1.9,No
2016/12/13,16:00,0.388,0.236,0.406,0.378,0.345,0.194,0.167,west-southwest,1.3,No
2016/12/13,16:10,0.388,0.236,0.407,0.375,0.345,0.196,0.168,southwest,1.1,No
2016/12/13,16:20,0.390,0.236,0.406,0.378,0.347,0.194,0.168,west-northwest,0.7,No
2016/12/13,16:30,0.391,0.235,0.407,0.377,0.345,0.195,0.167,-,CALM,No
2016/12/13,16:40,0.389,0.235,0.405,0.380,0.346,0.195,0.169,north-northwest,1.3,No
2016/12/13,16:50,0.391,0.236,0.408,0.379,0.344,0.195,0.169,northwest,0.7,No
2016/12/13,17:00,0.389,0.235,0.407,0.376,0.346,0.195,0.168,north-northwest,1.3,No
2016/12/13,17:10,0.388,0.236,0.405,0.380,0.347,0.195,0.168,northwest,1.9,No
2016/12/13,17:20,0.388,0.236,0.408,0.376,0.345,0.196,0.169,west-northwest,1.9,No
2016/12/13,17:30,0.387,0.235,0.404,0.378,0.344,0.195,0.168,west-northwest,1.7,No
2016/12/13,17:40,0.389,0.236,0.407,0.378,0.346,0.194,0.167,northwest,1.5,No
2016/12/13,17:50,0.389,0.236,0.406,0.377,0.344,0.195,0.169,north-northwest,1.7,No
2016/12/13,18:00,0.388,0.234,0.405,0.379,0.346,0.196,0.168,northwest,1.4,No
2016/12/13,18:10,0.391,0.235,0.408,0.378,0.346,0.195,0.168,northwest,1.1,No
2016/12/13,18:20,0.388,0.235,0.407,0.377,0.346,0.195,0.168,northwest,1.0,No
2016/12/13,18:30,0.388,0.236,0.405,0.378,0.346,0.195,0.169,-,CALM,No
2016/12/13,18:40,0.389,0.236,0.409,0.378,0.343,0.195,0.169,west-northwest,0.8,Yes
2016/12/13,18:50,0.389,0.236,0.405,0.377,0.347,0.196,0.169,north-northwest,1.2,Yes
2016/12/13,19:00,0.389,0.237,0.407,0.379,0.347,0.197,0.168,north,5.2,No
2016/12/13,19:10,0.391,0.237,0.405,0.377,0.345,0.196,0.169,north,5.4,No
2016/12/13,19:20,0.389,0.235,0.405,0.379,0.345,0.196,0.168,north-northeast,7.3,Yes
2016/12/13,19:30,0.392,0.235,0.409,0.377,0.346,0.196,0.169,north,7.3,Yes
2016/12/13,19:40,0.390,0.238,0.406,0.381,0.347,0.197,0.170,north,7.5,Yes
2016/12/13,19:50,0.391,0.238,0.409,0.379,0.348,0.197,0.170,north,6.8,Yes
2016/12/13,20:00,0.390,0.237,0.407,0.379,0.347,0.198,0.170,north,6.6,No
2016/12/13,20:10,0.391,0.238,0.409,0.379,0.348,0.197,0.170,north,7.2,Yes
2016/12/13,20:20,0.391,0.237,0.409,0.379,0.348,0.197,0.170,north-northwest,7.2,Yes
2016/12/13,20:30,0.390,0.236,0.407,0.378,0.346,0.197,0.170,north,7.8,Yes
2016/12/13,20:40,0.391,0.237,0.408,0.382,0.346,0.197,0.169,north-northwest,8.2,Yes
2016/12/13,20:50,0.392,0.236,0.409,0.378,0.347,0.197,0.170,north,7.8,Yes
2016/12/13,21:00,0.391,0.237,0.407,0.381,0.346,0.197,0.171,north,8.2,Yes
2016/12/13,21:10,0.389,0.238,0.410,0.381,0.347,0.197,0.170,north,7.8,Yes
2016/12/13,21:20,0.392,0.237,0.408,0.379,0.348,0.197,0.171,north-northwest,7.8,Yes
2016/12/13,21:30,0.393,0.237,0.408,0.381,0.347,0.198,0.171,north-northwest,8.3,Yes
2016/12/13,21:40,0.392,0.239,0.410,0.380,0.347,0.198,0.171,north,7.8,Yes
2016/12/13,21:50,0.394,0.239,0.407,0.379,0.348,0.199,0.172,north-northwest,7.8,Yes
2016/12/13,22:00,0.390,0.238,0.409,0.381,0.347,0.199,0.172,north,7.8,Yes
2016/12/13,22:10,0.390,0.239,0.409,0.378,0.347,0.198,0.171,north,9.0,Yes
2016/12/13,22:20,0.390,0.239,0.406,0.377,0.346,0.199,0.170,north,8.4,Yes
2016/12/13,22:30,0.390,0.238,0.408,0.376,0.345,0.199,0.170,north,7.8,Yes
2016/12/13,22:40,0.390,0.237,0.406,0.375,0.346,0.198,0.171,north,8.1,Yes
2016/12/13,22:50,0.389,0.238,0.403,0.376,0.345,0.196,0.170,north,8.4,Yes
2016/12/13,23:00,0.386,0.236,0.404,0.374,0.345,0.198,0.169,north-northwest,8.6,Yes
2016/12/13,23:10,0.387,0.236,0.403,0.372,0.344,0.196,0.169,north,8.3,Yes
2016/12/13,23:20,0.387,0.235,0.400,0.372,0.343,0.196,0.169,north-northwest,7.6,Yes
2016/12/13,23:30,0.383,0.236,0.399,0.371,0.342,0.196,0.168,north-northwest,8.3,Yes
2016/12/13,23:40,0.383,0.235,0.399,0.369,0.344,0.196,0.168,north,8.4,Yes
2016/12/13,23:50,0.382,0.235,0.396,0.371,0.342,0.195,0.166,north-northwest,9.0,Yes
